Location: Aalen
(48.8330°N, 10.1000°E)
Time: 20:28:50
(UTC+02:00)

S-56A Canister/Altair - Pass Details

Date: 02 August 2021
Orbit: 632 x 2500 km, 38.9° (Epoch: 19 September)

Event Time Altitude Azimuth Distance (km) Brightness Sun altitude
Rises 22:49:22 0° 281° (W) 6,170 13.0 -15.1°
Reaches altitude 10° 22:55:33 10° 264° (W) 5,041 12.1 -15.7°
Maximum altitude 23:03:14 17° 231° (SW) 4,178 11.2 -16.5°
Drops below altitude 10° 23:10:02 10° 197° (SSW) 4,340 11.0 -17.1°
Enters shadow 23:11:48 - 189° (S) 4,537 11.0 -17.3°
Sets 23:14:46 0° 178° (S) 4,987 - -17.5°
